Location: Unspecified
(51.5147°N, 7.4673°E)
Time: 16:03:30
(UTC+01:00)

Vanguard 2 - Pass Details

Date: 23 February 2026
Orbit: 553 x 2896 km, 32.9° (Epoch: 6 March)

Event Time Altitude Azimuth Distance (km) Brightness Sun altitude
Rises 04:15:18 0° 215° (SW) 4,776 - -30.2°
Reaches altitude 10° 04:22:42 10° 178° (S) 3,032 - -29.2°
Maximum altitude 04:23:31 10° 172° (S) 2,933 - -29.1°
Exits shadow 04:23:45 10° 170° (S) 2,909 10.3 -29.0°
Drops below altitude 10° 04:24:19 10° 165° (SSE) 2,867 10.4 -28.9°
Sets 04:29:37 0° 122° (ESE) 3,292 11.3 -28.2°
